Tracking 29892 objects as of 21-Nov-2024
HD Live streaming from Space Station
objects crossing your sky now

SL-8 R/B

Track SL-8 R/B now!
10-day predictions


NORAD ID: 7737
Int'l Code: 1975-028B
Perigee: 954.2 km
Apogee: 982.8 km
Inclination: 83.0 °
Period: 104.3 minutes
Semi major axis: 7339 km
RCS: 4.7753 m2 (large)
Launch date: April 11, 1975
Source: Commonwealth of Independent States (former USSR) (CIS)
Launch site: PLESETSK MISSILE AND SPACE COMPLEX (PKMTR)

Note: This is a ROCKET BODY
Your satellite tracking list
AAC-HSI-SAT1
Track 1 satellite(s)




NASA's NSSDC Master Catalog

Two Line Element Set (TLE):
1 07737U 75028B   24325.58949403  .00000164  00000-0  14071-3 0  9991
2 07737  82.9936 243.0444 0019476  67.9112  53.8568 13.80713013497919
Source of the keplerian elements: AFSPC